Showing default

GLOBALSTAR M090, 38044

Orbit data source: Space-Track

GLOBALSTAR M090, 38044 is a payload satellite owned by Globalstar (US) in LEO that was launched on Wed, 28 Dec 2011 UTC via a SOYUZ-2-1A launch vehicle from the Tyuratam Missile And Space Complex (TTMTR). Payload-class satellites include a variety of spacecraft equipped with specific instruments for various scientific and technological missions. These include communications satellites like Starlink; space stations such as the ISS; scientific satellites like the Hubble; Earth observation satellites from companies like Planet Labs, Umbra, and HawkEye 360; GPS; miniature CubeSats for education and research; and military/defense satellites.

Loading next visibility...
Identifier
38044, 2011-080E
Orbit
LEO
Country
Flag of UnknownUnknown / GLOB
Related business
Manufacturer
Thales Alenia
Mission
Operational Commercial Communications
Bus & Motor
PRISMA?, LS-400 AOCS?
Mass
715 kg wet, ~500 kg dry
Launch date (UTC)
2011-12-28 (14 years ago)
Launch vehicle
SOYUZ-2-1A
Launch site
Tyuratam Missile And Space Complex (TTMTR)
Object type
Payload
Rocket body
Debris
Shape & HBR
Trap Cyl + 2 Pan, 6.0 m
Radar Cross Section
20.931 m², Large (>1 m²)

Expand to show TLE details & history
Last TLE update: 1 day ago

TLE from 1 day ago
0 GLOBALSTAR M090
1 38044U 11080E   25260.99227950 -.00000095  00000-0  49492-4 0  9994
2 38044  52.0116  76.9030 0000987  88.9473  84.7842 12.62262420635334
Epoch: 2025-09-17T23:48Z
TLE epoch observation values (Epoch: 2025-09-17T23:48:52.948Z)
Latitude
4.88628°
Longitude
-101.28707°
Altitude
1,413.733 km
Speed
7.155 km/s
True Right ascension
16h 52m 22s
True Declination
4° 51' 35"
Sunlit
Object was in daylight at epoch
Visualization orbit readout
Latitude
Unknown
Longitude
Unknown
Altitude
Unknown
Speed
Unknown
Apparent Right ascension
Unknown
Apparent Declination
Unknown
Sunlit
N/A
Visualization observer readout
Local Sidereal Time
17:15:09
Azimuth
Unknown
Elevation
Unknown
Doppler factor
Unknown
Orbital elements
Apogee altitude
1,414.78 km
Perigee altitude
1,413.242 km
Semi-major axis
7,792.148 km
Eccentricity
0.0001
Inclination
52.0116°
RAAN
76.903°
Arg. of periapsis
88.9473°
True anomaly
84.79546°
Mean anomaly
84.7842°
Eccentric anomaly
84.78983°
Mean motion
3.15542 °/min
Orbital period
114.09 mins
BSTAR
0.000049492
Loading maneuver chart data...
Computing Atmospheric mass density...
Loading historical data...
Loading historical data...
Loading historical data...
Loading historical data...
Loading historical data...
Loading historical data...
Loading historical data...

Documentation

Showing up to 5 results
|